Dillingham Weather Center

Moon Phase Calendar



Online Cameras

 


      

Current Conditions in Dillingham
12/5/2022 2:39:40 AM

34°F
Feels Like 34
Clear
Humidity
93%
Pressure
30.06"
Wind
0
Dew Point
32°F
UV Index
0/10 (Low)
Visibility
6 mi

Hourly Forecast

Date & Time Mon, Dec 5
2:00 AM
Mon, Dec 5
3:00 AM
Mon, Dec 5
4:00 AM
Mon, Dec 5
5:00 AM
Mon, Dec 5
6:00 AM
Mon, Dec 5
7:00 AM
Mon, Dec 5
8:00 AM
Mon, Dec 5
9:00 AM
Mon, Dec 5
10:00 AM
Mon, Dec 5
11:00 AM
Mon, Dec 5
12:00 PM
Mon, Dec 5
1:00 PM
Mon, Dec 5
2:00 PM
Mon, Dec 5
3:00 PM
Mon, Dec 5
4:00 PM
Mon, Dec 5
5:00 PM
Mon, Dec 5
6:00 PM
Mon, Dec 5
7:00 PM
Mon, Dec 5
8:00 PM
Mon, Dec 5
9:00 PM
Mon, Dec 5
10:00 PM
Mon, Dec 5
11:00 PM
Tue, Dec 6
12:00 AM
Tue, Dec 6
1:00 AM
Tue, Dec 6
2:00 AM
Tue, Dec 6
3:00 AM
Tue, Dec 6
4:00 AM
Tue, Dec 6
5:00 AM
Tue, Dec 6
6:00 AM
Tue, Dec 6
7:00 AM
Tue, Dec 6
8:00 AM
Tue, Dec 6
9:00 AM
Tue, Dec 6
10:00 AM
Tue, Dec 6
11:00 AM
Tue, Dec 6
12:00 PM
Tue, Dec 6
1:00 PM
Tue, Dec 6
2:00 PM
Tue, Dec 6
3:00 PM
Tue, Dec 6
4:00 PM
Tue, Dec 6
5:00 PM
Tue, Dec 6
6:00 PM
Tue, Dec 6
7:00 PM
Tue, Dec 6
8:00 PM
Tue, Dec 6
9:00 PM
Tue, Dec 6
10:00 PM
Tue, Dec 6
11:00 PM
Wed, Dec 7
12:00 AM
Wed, Dec 7
1:00 AM
Condition
Clouds

Clear

Clouds

Clouds

Clouds

Clouds

Clouds

Clouds

Clouds

Clouds

Clouds

Clouds

Clouds

Clouds

Clouds

Clouds

Clouds

Snow

Snow

Snow

Snow

Snow

Clouds

Clouds

Clouds

Clouds

Clouds

Clouds

Clouds

Snow

Snow

Snow

Snow

Clouds

Clouds

Clouds

Clouds

Snow

Clouds

Clouds

Clouds

Clouds

Clouds

Clouds

Clouds

Clouds

Clouds

Clouds
Temperature 34°F34°F33°F32°F30°F28°F26°F25°F25°F25°F27°F29°F30°F31°F31°F31°F31°F31°F32°F32°F32°F32°F32°F31°F31°F30°F30°F30°F29°F30°F31°F31°F31°F27°F27°F27°F27°F28°F29°F25°F23°F22°F24°F27°F27°F26°F24°F23°F
Feels Like 27°F28°F28°F26°F24°F22°F20°F20°F20°F19°F22°F21°F21°F21°F21°F23°F22°F21°F21°F22°F22°F23°F25°F25°F25°F24°F25°F25°F24°F24°F24°F23°F21°F17°F15°F17°F17°F17°F18°F14°F11°F10°F13°F14°F15°F14°F12°F11°F
Cloudiness 20%0%20%40%60%64%68%61%32%36%56%61%69%74%100%100%100%100%100%100%100%100%100%100%100%100%100%100%99%99%100%100%100%83%58%47%41%41%99%63%48%38%50%58%100%100%100%91%
Visibility 6 mi6 mi6 mi6 mi6 mi6 mi6 mi6 mi6 mi6 mi4 mi0 mi0 mi1 mi6 mi6 mi1 mi0 mi0 mi0 mi0 mi0 mi0 mi6 mi4 mi6 mi6 mi6 mi3 mi0 mi0 mi0 mi6 mi6 mi6 mi6 mi6 mi0 mi6 mi6 mi6 mi6 mi6 mi6 mi6 mi6 mi6 mi6 mi
Precipitation 21%21%0%0%0%0%0%0%0%0%0%0%0%0%1%1%23%87%93%93%100%100%80%80%77%77%0%7%18%41%61%66%37%28%13%12%7%25%28%16%9%6%5%1%0%0%0%0%
Humidity 93%93%94%94%95%96%97%97%98%98%98%99%99%98%96%96%95%98%99%98%99%99%99%98%97%96%95%95%97%98%99%99%86%86%87%86%83%96%92%93%90%88%88%80%76%75%79%78%
Dew Point 32°F32°F32°F30°F29°F27°F24°F24°F24°F24°F26°F28°F30°F30°F29°F30°F29°F31°F31°F32°F32°F31°F31°F30°F30°F29°F29°F29°F28°F29°F30°F30°F27°F24°F23°F23°F23°F26°F27°F23°F20°F18°F20°F21°F21°F19°F18°F17°F
Pressure 30.06"30.06"30.06"30.06"30.03"30"30"29.97"29.97"29.94"29.91"29.88"29.85"29.83"29.8"29.77"29.74"29.71"29.68"29.65"29.65"29.62"29.62"29.59"29.59"29.59"29.56"29.56"29.53"29.53"29.53"29.53"29.53"29.53"29.56"29.56"29.53"29.47"29.47"29.5"29.53"29.56"29.59"29.62"29.65"29.65"29.71"29.77"
Wind Speed 7.8 mph6.8 mph5.4 mph5.4 mph5.4 mph5.8 mph4.7 mph4.4 mph3.7 mph5.1 mph4.2 mph7.9 mph11 mph11.1 mph11.6 mph9.1 mph10.5 mph13.3 mph14.7 mph15 mph13.7 mph10.6 mph7.6 mph6.8 mph5.2 mph5.7 mph5.4 mph4.6 mph4.7 mph5.6 mph6.4 mph8.9 mph15.4 mph12.8 mph14.4 mph11.4 mph12.6 mph12.6 mph15.2 mph11.8 mph11.3 mph12.4 mph11.3 mph19.2 mph23.6 mph21.8 mph15.8 mph13.3 mph
Wind
Direction
219°
SW
227°
SW
199°
SSW
191°
S
157°
SSE
168°
SSE
163°
SSE
158°
SSE
148°
SSE
120°
ESE
136°
SE
120°
ESE
140°
SE
136°
SE
148°
SSE
127°
SE
136°
SE
137°
SE
146°
SE
154°
SSE
167°
SSE
177°
S
211°
SSW
241°
WSW
250°
WSW
245°
WSW
245°
WSW
227°
SW
186°
S
179°
S
187°
S
203°
SSW
253°
WSW
244°
WSW
245°
WSW
235°
SW
209°
SSW
201°
SSW
274°
W
289°
WNW
275°
W
286°
WNW
290°
WNW
286°
WNW
289°
WNW
288°
WNW
300°
WNW
300°
WNW

Daily Forecast

Date High Low Precip. Humidity
Today
Dec 5

Snow
34 °F
25 °F
100%
99%
Tuesday
Dec 6

Snow
32 °F
23 °F
80%
86%
Wednesday
Dec 7

Clear
26 °F
11 °F
0%
83%
Thursday
Dec 8

Clouds
13 °F
9 °F
0%
89%
Friday
Dec 9

Clear
8 °F
3 °F
0%
91%
Saturday
Dec 10

Clouds
13 °F
3 °F
0%
92%
Sunday
Dec 11

Snow
16 °F
4 °F
95%
89%
Monday
Dec 12

Clouds
17 °F
7 °F
18%
96%
Tuesday
Dec 13

Snow
27 °F
15 °F
100%
93%
Wednesday
Dec 14

Snow
34 °F
30 °F
100%
99%
Thursday
Dec 15

Snow
33 °F
28 °F
100%
99%
Friday
Dec 16

Snow
33 °F
23 °F
100%
90%
Saturday
Dec 17

Clouds
14 °F
3 °F
0%
93%
Sunday
Dec 18

Snow
25 °F
5 °F
94%
92%
Monday
Dec 19

Snow
26 °F
15 °F
100%
94%
Tuesday
Dec 20

Snow
23 °F
16 °F
32%
92%

Temperature 8-14 Day Outlook



Precipitation 8-14 Day Outlook




Quick Links
Dillingham News
Dillingham Photos
Dillingham Videos




About Us
Contact Us
Site Map
Search Site
Advertise With Us
   
Dillingham.USCoast.info
THE DILLINGHAM WEBSITE

Copyright 2022, Coastal Town
Privacy    |    Legal